Location: 22
(39.7117°N, 89.5929°W)
Time: 09:51:34
(UTC-05:00)

S-56A Canister/Altair - Pass Details

Date: 15 February 2023
Orbit: 638 x 2493 km, 38.9° (Epoch: 25 March)

Event Time Altitude Azimuth Distance (km) Brightness Sun altitude
Rises 05:02:40 0° 208° (SSW) 4,457 11.2 -21.4°
Reaches altitude 10° 05:06:59 10° 193° (SSW) 3,116 10.5 -20.6°
Maximum altitude 05:11:53 19° 151° (SSE) 2,116 10.1 -19.7°
Drops below altitude 10° 05:15:50 10° 106° (ESE) 2,423 11.2 -18.9°
Sets 05:18:39 0° 88° (E) 3,176 12.4 -18.4°
